Home   Weather   Roskilde   Past weeks

Flag for Denmark Past Weather in Roskilde, Denmark — Yesterday and Last 2 Weeks

Now
43 °F

Passing clouds.


Feels Like: 32 °F
Forecast: 29 / 35 °F
Wind: 31 mph from West

Location: Koebenhavn / Roskilde

Current Time: Feb 23, 2017 at 4:03:46 am

Latest Report: Feb 23, 2017 at 3:20 am


Visibility: N/A

Pressure: 29.15 "Hg

Humidity: 76%

Dew Point: 36 °F

Location of RoskildeLocation

Past Weather in Roskilde — Graph

°F

Roskilde Temperature Yesterday

Maximum temperature yesterday: 46 °F (at 7:20 am)
Minimum temperature yesterday: 39 °F (at 12:20 am)
Average temperature yesterday: 43 °F

High & Low Weather Summary for the Past Weeks

 TemperatureHumidityPressure
High46 °F (Feb 20, 4:50 pm)100% (Feb 9, 5:50 am)30.72 "Hg (Feb 9, 5:50 am)
Low18 °F (Feb 13, 11:20 pm)53% (Feb 14, 2:20 pm)29.09 "Hg (Feb 22, 10:20 pm)
Average35 °F87%30.19 "Hg
* Reported Feb 8 2:20 am — Feb 23 2:50 am, Roskilde, Weather by CustomWeather, © 2017

Note: Actual official high and low records may vary slightly from our data, if they occured in-between our weather recording intervals... More about our weather records

Advertising

Roskilde Weather History for the Previous 24 Hours

Scroll right to see more
 ConditionsComfort  
Time TempWeatherWind HumidityBarometerVisibility
2:50 am
Thu, Feb 23
43 °FMostly cloudy.30 mph76%29.12 "HgN/A
2:20 am43 °FMostly cloudy.29 mph76%29.12 "HgN/A
1:50 am43 °FPartly cloudy.28 mph76%29.12 "HgN/A
1:20 am43 °FMostly cloudy.31 mph76%29.12 "HgN/A
12:50 am43 °FPassing clouds.24 mph76%29.12 "HgN/A
12:20 am43 °FMostly cloudy.29 mph71%29.12 "HgN/A
11:50 pm
Wed, Feb 22
41 °FPartly cloudy.31 mph81%29.12 "HgN/A
11:20 pm43 °FPassing clouds.29 mph76%29.09 "HgN/A
10:50 pm43 °FOvercast.30 mph76%29.09 "HgN/A
10:20 pm43 °FPartly cloudy.29 mph76%29.09 "HgN/A
9:50 pm43 °FPartly cloudy.25 mph71%29.12 "HgN/A
9:20 pm41 °FPartly cloudy.26 mph76%29.12 "HgN/A
8:50 pm43 °FPassing clouds.24 mph71%29.12 "HgN/A
8:20 pm41 °FLight rain. Overcast.24 mph81%29.12 "HgN/A
7:50 pm41 °FOvercast.24 mph76%29.15 "HgN/A
7:20 pm41 °FPassing clouds.24 mph76%29.15 "HgN/A
6:50 pm41 °FPartly cloudy.23 mph76%29.15 "HgN/A
6:20 pm43 °FPassing clouds.22 mph71%29.18 "HgN/A
5:50 pm43 °FPassing clouds.22 mph71%29.15 "HgN/A
5:20 pm43 °FPartly sunny.24 mph71%29.18 "HgN/A
4:50 pm43 °FPartly sunny.24 mph71%29.18 "HgN/A
4:20 pm45 °FPartly sunny.23 mph66%29.18 "HgN/A
3:50 pm45 °FPassing clouds.24 mph66%29.18 "HgN/A
3:20 pm45 °FPassing clouds.28 mph66%29.21 "HgN/A
2:50 pm45 °FPassing clouds.23 mph66%29.21 "HgN/A
2:20 pm45 °FPassing clouds.26 mph66%29.21 "HgN/A
1:50 pm45 °FBroken clouds.25 mph71%29.21 "HgN/A
1:20 pm45 °FPartly sunny.26 mph66%29.21 "HgN/A
12:50 pm46 °FPartly sunny.29 mph66%29.21 "HgN/A
12:20 pm45 °FSprinkles. Partly sunny.29 mph71%29.21 "HgN/A
11:50 am45 °FBroken clouds.25 mph71%29.21 "HgN/A
11:20 am45 °FPartly sunny.23 mph76%29.21 "HgN/A
10:50 am45 °FPartly sunny.23 mph71%29.21 "HgN/A
10:20 am45 °FPartly sunny.21 mph76%29.21 "HgN/A
9:50 am45 °FScattered clouds.22 mph81%29.21 "HgN/A
9:20 am45 °FScattered clouds.21 mph81%29.21 "HgN/A
8:50 am45 °FPassing clouds.21 mph87%29.18 "HgN/A
8:20 am45 °FBroken clouds.22 mph93%29.18 "HgN/A
7:50 am46 °FPartly sunny.21 mph87%29.18 "HgN/A
7:20 am46 °FLight rain. Mostly cloudy.21 mph93%29.15 "Hg4 mi
6:50 am45 °FLight rain. Partly cloudy.15 mph100%29.15 "Hg6 mi
6:20 am45 °FLight rain. Mostly cloudy.18 mph93%29.18 "Hg6 mi
5:50 am43 °FLight rain. Partly cloudy.23 mph93%29.18 "Hg5 mi
5:20 am41 °FLight rain. Overcast.24 mph100%29.21 "Hg3 mi
4:50 am41 °FLight rain. Passing clouds.22 mph93%29.24 "Hg2 mi
4:20 am39 °FLight rain. Overcast.17 mph100%29.27 "Hg3 mi
Weather by CustomWeather, © 2017

See weather overviewHow to use our weather pages